Retour au catalogue

SL-14 DEB

ActifPO
NORAD 19233·DEBRIS·🇷🇺 Russia

Lancé Oct 26, 1978 depuis Plesetsk Cosmodrome

Loading…

Prochains Passages (prochaines 24 heures)

TLE

FraisSource: Space-Track

Époque: Sep 14, 2026, 10:29 UTC

1 19233U 78100AC  26257.43687343  .00000251  00000-0  27385-2 0  9999
2 19233  82.5528 237.3781 0059625  53.3170 101.9048 12.06977347685689

Suivez SL-14 DEB en temps réel avec AllMySat

Download on the App Store